Zurück zum Katalog

ASTRA 1C

AktivKommunikationGEO
NORAD 22653·PAYLOAD·🇱🇺 Luxembourg

Gestartet May 12, 1993 von Guiana Space Centre

Loading…

TLE

AktuellSource: Space-Track

Epoche: Sep 14, 2026, 02:39 UTC

1 22653U 93031A   26257.11049691 -.00000226  00000-0  00000-0 0  9998
2 22653  12.9737  24.9061 0001814  58.2557 123.2635  0.98843930 51975

Verfolge ASTRA 1C in Echtzeit mit AllMySat

Download on the App Store